Location: Falkner
(32.6954°N, 86.0502°W)
Time: 14:54:17
(UTC+00:00)

Delta 2 Rocket - Pass Details

Date: 29 October 2020
Orbit: 415 x 806 km, 35.6° (Epoch: 03 December)

Event Time Altitude Azimuth Distance (km) Brightness Sun altitude
Rises 23:33:43 0° 285° (WNW) 2,969 8.3 -8.6°
Reaches altitude 10° 23:35:59 10° 283° (WNW) 2,117 7.5 -9.1°
Maximum altitude 23:40:59 71° 201° (SSW) 775 4.1 -10.1°
Drops below altitude 10° 23:46:29 10° 118° (ESE) 2,322 6.0 -11.3°
Enters shadow 23:46:52 - 117° (ESE) 2,467 6.2 -11.4°
